Theta_e
315 317 318 322 324 323 323 323 320 322 321 320 318 319 321 319 320 323 323 329 331 336 340 342 342 342 338 341 338 334 331 332 337 340 340 340 336 335 332 331 332 332 331 327 318 310 304 312 324
317 317 319 321 322 320 321 320 320 319 319 318 318 319 320 321 319 322 326 328 333 335 340 343 342 342 339 341 338 335 332 333 338 338 338 337 337 336 332 330 329 330 330 327 322 310 306 306 316
317 315 323 322 320 318 319 319 319 318 317 319 320 319 320 321 321 322 323 330 334 335 340 343 342 342 340 338 337 336 334 334 337 338 338 337 338 334 331 330 329 329 329 327 322 312 307 307 314
318 319 318 320 319 318 318 317 317 318 318 318 318 320 318 317 321 323 323 331 335 336 340 341 342 341 341 339 338 339 337 334 336 337 337 338 335 332 331 329 329 327 327 326 320 308 303 305 312
315 319 321 321 320 317 316 317 317 319 319 319 318 318 319 318 322 326 326 333 335 337 339 341 341 341 342 341 340 339 338 335 336 337 338 336 333 332 330 327 328 327 326 324 318 308 302 304 309
320 317 320 320 319 317 316 316 317 318 316 317 317 317 318 316 320 326 331 333 335 337 338 340 341 340 341 341 340 339 338 335 335 336 338 337 333 331 329 325 323 325 325 323 319 312 303 302 307
319 316 316 319 319 318 318 314 317 316 315 317 316 316 317 315 315 324 325 330 334 336 338 339 341 341 340 340 339 340 338 336 335 336 337 336 333 331 329 328 329 325 322 321 319 316 305 302 303
317 317 317 317 317 319 316 315 315 315 316 313 315 316 316 314 315 321 324 325 330 335 336 338 338 338 341 340 338 338 337 337 335 336 336 335 334 331 328 329 329 327 323 321 319 318 314 303 300
312 315 315 315 317 317 315 316 313 312 314 314 312 313 309 308 312 316 319 319 322 322 329 335 337 336 339 340 338 336 336 336 336 335 335 334 332 330 329 328 328 327 325 324 323 319 316 311 303
316 316 314 312 315 316 316 316 316 315 315 315 313 310 308 308 310 312 312 313 312 311 314 321 333 334 338 336 339 335 336 336 337 336 334 334 332 331 329 330 328 327 325 323 323 322 319 314 309
315 315 312 312 313 314 316 315 315 315 316 315 315 311 308 308 308 309 309 308 308 308 309 310 320 333 337 335 335 336 334 334 334 334 333 332 332 331 332 328 328 326 325 324 322 321 320 317 313
316 315 314 315 314 314 316 315 315 315 314 309 309 307 307 308 307 306 307 307 307 308 309 309 310 324 336 333 333 334 333 334 332 333 334 331 330 331 329 329 328 326 325 324 321 320 320 317 316
316 315 314 315 314 314 312 314 314 313 309 307 306 306 306 306 305 305 305 306 307 308 310 312 311 319 332 332 333 332 331 331 330 332 331 330 330 330 328 327 325 325 324 322 320 320 318 317 316
314 313 314 313 313 312 313 313 312 308 308 307 306 306 304 303 302 304 304 306 306 308 309 313 314 326 330 332 330 327 327 327 328 329 328 329 328 327 325 324 323 322 321 320 320 318 317 316 315
312 315 315 315 313 313 312 313 313 309 308 308 306 305 303 301 301 301 301 304 305 306 312 316 322 326 328 328 326 325 324 325 324 323 325 325 324 323 322 321 321 319 319 319 318 318 317 316 315
314 314 319 315 312 311 313 320 310 308 309 309 306 304 303 301 300 300 300 303 302 307 311 316 321 323 324 323 320 321 318 318 318 319 320 320 320 318 319 319 316 316 317 316 316 314 313 311 310
314 320 317 317 312 312 313 318 310 308 308 309 306 304 303 302 300 299 299 301 300 306 307 310 315 316 315 315 314 312 313 312 311 311 312 312 313 312 312 312 310 310 309 309 308 308 308 308 307
321 317 315 317 314 312 314 316 310 308 309 308 305 303 302 301 299 297 298 299 299 303 304 306 306 307 309 309 308 307 306 303 303 302 304 305 305 306 304 302 301 301 302 301 303 306 306 305 304
317 316 317 315 313 313 316 316 314 308 307 306 304 303 302 300 297 296 297 298 299 299 301 302 304 302 302 302 300 297 293 293 291 291 291 293 294 294 295 295 296 295 296 295 296 299 301 302 299
314 316 317 314 311 312 315 314 314 308 308 306 304 303 301 299 298 296 296 297 297 297 297 298 300 299 298 297 295 293 291 290 289 289 289 289 290 290 290 289 289 289 290 289 290 290 294 295 296
314 315 316 316 313 312 313 317 313 305 303 302 301 300 300 299 297 295 294 295 295 295 295 295 295 294 293 292 291 291 290 290 289 289 288 287 287 287 287 287 287 287 288 288 288 288 289 291 291
316 312 313 314 315 321 313 324 317 310 306 302 301 300 299 297 295 293 293 293 292 292 292 292 292 291 291 291 291 291 290 289 288 288 287 287 287 286 286 286 286 286 286 286 286 286 287 288 289
315 312 313 313 316 316 316 320 320 307 308 304 301 300 298 296 294 293 291 290 289 290 290 290 289 289 289 290 290 290 289 288 288 288 287 287 286 285 285 284 284 284 284 284 284 285 285 286 287
310 311 311 311 314 320 319 318 323 312 311 306 302 300 298 295 293 291 290 289 289 289 289 289 289 289 289 289 289 289 289 288 288 288 288 287 286 285 284 283 283 283 283 283 283 283 284 284 285
312 315 323 321 319 324 311 317 320 312 308 306 302 300 297 295 293 291 289 289 288 289 289 289 289 288 288 288 288 288 288 288 287 287 287 287 286 285 283 283 283 282 282 282 282 283 283 283 283
313 318 325 329 322 320 310 316 316 306 304 305 302 300 297 295 293 291 290 289 288 288 288 288 288 288 288 287 287 287 287 287 287 286 286 285 284 283 282 282 282 282 282 282 282 283 283 282 283
312 313 314 313 306 318 318 315 308 304 304 303 301 299 297 295 293 292 290 289 288 288 288 288 288 287 287 287 287 287 287 287 286 286 285 284 283 282 282 282 282 282 282 281 281 281 282 282 282
311 312 316 315 322 324 318 316 318 308 306 303 301 299 297 295 293 292 290 289 288 288 288 288 287 287 287 287 287 286 286 286 286 285 284 283 282 282 281 280 280 279 279 279 279 279 279 279 279
311 312 312 314 316 323 322 318 311 312 308 304 302 300 298 296 294 292 290 289 288 288 287 288 288 287 287 286 286 286 286 286 285 284 282 281 280 279 278 278 278 278 278 278 277 277 277 277 277
312 313 313 319 316 314 316 319 305 307 307 304 303 300 298 296 294 293 291 289 288 288 288 288 287 287 286 286 286 286 286 284 282 280 279 279 278 278 278 278 277 277 276 276 276 275 275 275 276
Wind_Speed
5 4 1 1 3 1 4 4 2 2 1 2 1 3 5 4 4 3 1 7 2 12 19 22 17 14 14 13 13 13 12 12 12 11 12 12 11 12 12 12 9 12 13 12 12 12 10 8 8
3 1 1 1 2 5 5 2 3 2 3 1 1 1 1 5 3 3 2 7 2 13 18 18 19 17 15 14 13 13 12 12 12 11 10 11 12 12 10 9 10 11 12 12 12 12 10 8 7
2 2 2 1 1 4 5 2 2 1 1 1 1 1 2 3 4 3 3 6 6 12 17 17 20 16 15 15 14 12 11 11 11 8 10 11 12 10 8 8 9 10 11 12 12 11 10 9 9
1 2 3 1 8 3 3 2 1 3 2 0 1 4 2 3 3 4 1 5 7 10 14 16 19 15 13 14 13 12 12 11 9 9 12 12 9 7 7 8 10 11 11 11 12 11 10 9 9
3 1 2 3 4 3 1 1 1 2 2 3 0 3 3 4 6 7 5 5 7 9 11 14 17 16 14 13 12 11 11 11 10 10 12 10 8 6 8 10 10 10 10 10 11 10 9 8 8
1 2 3 4 4 3 2 1 2 3 2 2 1 3 4 5 7 7 5 4 5 7 10 13 16 13 13 10 10 10 10 10 9 10 10 8 7 5 9 12 13 10 9 9 11 10 8 7 6
1 1 1 3 5 4 4 1 4 2 2 4 1 3 4 10 9 4 4 4 4 5 6 10 12 15 14 11 10 10 9 10 9 8 9 8 6 5 9 10 14 15 10 9 11 11 10 7 5
2 1 4 3 6 4 3 3 0 1 3 1 2 3 4 7 9 2 4 5 4 4 4 6 10 16 13 12 13 9 8 8 8 7 9 9 5 4 6 8 11 13 12 11 11 11 12 8 6
1 2 3 4 6 5 3 4 2 1 3 2 3 3 4 9 5 2 2 3 4 4 2 3 6 13 13 11 12 12 8 7 7 7 8 8 6 5 2 1 6 8 10 12 13 12 11 10 7
1 2 2 2 3 4 3 2 0 3 3 3 5 7 6 6 7 5 5 4 4 5 3 4 5 10 13 14 10 12 10 8 8 8 10 10 7 6 3 1 3 5 7 7 9 12 11 9 7
2 2 3 3 4 1 2 3 2 3 4 1 1 3 6 7 9 8 7 7 8 9 7 6 7 7 11 13 13 12 11 7 6 6 7 8 7 5 4 2 1 2 4 5 6 8 10 9 8
3 3 3 3 4 4 3 1 3 4 2 4 6 5 5 7 9 9 9 10 11 10 9 8 9 9 11 12 10 11 10 9 7 4 6 4 3 5 5 4 2 1 3 5 6 8 10 8 9
3 2 3 3 5 5 2 7 4 3 4 6 7 8 7 8 8 8 8 9 10 11 11 9 6 10 13 13 12 9 6 5 5 7 6 5 6 6 5 4 2 1 4 4 6 8 8 8 10
2 2 5 5 5 4 6 3 3 4 7 6 5 7 8 10 11 9 12 12 12 11 11 8 3 9 14 18 16 16 15 12 10 11 10 8 5 3 4 3 5 5 5 4 5 6 6 7 10
0 5 6 9 3 5 7 4 6 7 6 5 5 5 6 8 9 10 9 9 10 9 10 12 12 17 22 23 23 23 22 21 21 21 16 13 11 10 11 11 9 7 6 6 5 5 6 8 10
3 3 5 4 5 3 6 4 5 6 6 4 3 3 4 7 8 9 9 9 9 10 13 16 21 26 29 29 29 27 27 26 25 25 23 22 20 19 18 18 16 14 11 9 8 8 9 10 12
4 8 6 3 3 3 7 2 8 0 7 5 3 2 2 4 7 9 9 9 10 12 15 20 25 31 33 34 33 32 30 29 27 26 25 22 21 19 19 17 15 12 12 12 11 10 11 10 11
8 6 5 7 4 5 5 9 8 1 6 5 4 3 3 4 6 7 8 9 11 14 17 22 27 32 35 36 36 34 32 29 26 26 24 21 20 18 18 17 16 14 15 16 15 12 12 11 15
4 7 8 5 2 4 13 14 12 7 6 7 6 5 5 5 6 7 8 9 12 17 21 22 26 25 30 31 30 29 28 23 23 23 23 24 23 22 21 21 20 19 20 19 18 14 14 14 19
9 11 14 7 5 5 12 16 11 9 7 8 8 8 8 8 8 9 9 10 13 14 16 19 20 18 16 17 19 20 22 23 23 23 26 26 26 25 25 23 22 20 17 19 20 20 15 14 19
14 16 13 10 1 6 7 16 12 5 5 7 7 8 9 10 10 10 12 13 14 16 16 18 20 22 23 25 28 26 24 21 20 21 22 23 24 24 24 22 20 19 18 17 18 18 17 14 14
15 13 10 9 5 10 4 8 6 9 9 11 11 12 11 11 9 11 13 15 16 16 17 18 19 22 20 19 21 21 21 22 19 19 18 20 21 23 22 21 19 18 16 16 16 16 16 15 14
5 6 8 7 10 7 8 7 3 6 12 14 14 14 13 12 11 12 14 15 16 17 19 21 23 25 24 23 23 23 23 19 17 16 16 16 19 21 21 20 19 19 17 16 17 16 15 13 12
13 8 5 2 3 8 16 13 6 7 9 17 17 16 15 14 12 13 13 13 15 16 18 20 22 22 21 21 21 23 22 18 16 14 14 13 13 14 18 17 17 17 16 16 15 14 13 12 11
6 10 2 5 5 7 0 11 11 4 7 18 23 20 18 16 15 14 16 16 15 16 17 19 20 21 19 20 19 19 19 18 16 13 11 10 10 10 13 15 15 15 16 15 15 14 13 13 12
17 13 6 6 6 2 3 8 5 3 4 10 20 20 18 17 15 15 18 17 17 17 17 20 20 20 18 18 17 15 14 13 13 12 10 8 8 9 13 14 15 17 18 19 19 17 17 16 16
8 10 2 4 1 2 6 4 4 4 6 12 21 21 20 19 17 16 20 19 19 18 18 19 19 18 17 16 15 12 9 11 11 10 11 10 12 13 15 17 19 20 20 20 19 16 17 17 17
7 11 5 5 5 6 4 6 8 10 13 16 21 22 22 20 18 18 21 21 20 20 18 17 16 16 15 13 12 10 9 11 9 7 10 9 10 12 13 15 16 16 17 17 18 17 17 18 19
7 7 5 3 5 4 3 4 3 10 18 22 22 23 23 22 20 18 22 22 21 20 19 18 16 14 12 11 10 9 7 7 4 5 5 6 7 9 12 13 15 16 18 20 21 20 20 20 21
11 11 16 7 6 5 3 5 2 2 13 18 21 23 22 21 19 22 24 25 24 22 20 18 16 15 12 12 11 9 5 3 2 3 3 5 8 11 13 15 17 18 19 21 20 21 22 22 23
Wind_Direction
344 346 21 244 207 179 111 110 325 160 165 32 30 314 29 18 12 41 69 169 130 165 169 167 172 178 168 167 159 152 146 142 134 133 131 118 103 90 71 50 61 64 61 55 49 48 52 68 81
352 20 55 153 195 149 108 113 156 68 52 348 177 210 198 72 42 76 87 159 145 167 171 174 174 182 173 167 164 157 152 146 141 146 133 118 106 100 74 52 40 63 57 53 48 48 53 67 77
354 53 253 110 120 115 123 162 121 82 4 254 198 336 20 51 60 52 31 160 137 162 173 178 177 187 180 174 172 168 163 157 154 151 141 128 121 100 71 50 43 66 60 54 49 48 54 65 74
293 174 138 222 112 99 92 123 191 167 152 136 331 122 124 28 16 354 10 149 146 161 173 185 179 184 191 188 184 177 172 164 162 149 144 139 129 105 61 50 68 68 61 53 48 45 51 63 73
38 238 148 132 122 124 204 320 266 176 130 113 248 97 73 54 21 33 113 117 139 155 174 181 183 183 193 199 190 184 180 171 162 155 147 146 133 95 57 57 79 70 60 54 44 43 51 62 71
149 289 197 186 150 154 214 248 230 183 138 116 158 121 79 29 39 39 90 93 124 160 174 183 187 188 192 204 203 194 187 180 171 165 160 157 143 102 64 59 57 67 63 55 39 38 48 54 65
61 287 141 148 155 178 172 205 217 152 154 109 55 146 106 45 8 26 58 87 109 141 159 180 191 193 191 195 210 204 195 190 182 178 169 170 155 105 67 60 45 43 50 40 33 27 36 47 50
85 105 150 184 183 173 134 189 117 262 121 41 322 148 153 2 353 16 63 73 94 113 143 176 201 199 201 199 203 211 207 200 198 193 183 169 164 120 70 31 44 40 42 34 27 24 26 34 31
239 190 181 181 175 156 143 186 150 331 260 70 49 61 3 339 352 59 78 71 82 77 104 199 206 204 205 204 205 205 207 212 205 189 191 176 164 141 83 42 39 27 27 23 21 17 19 24 24
269 246 194 145 171 166 155 245 212 220 200 165 126 96 32 20 38 52 30 1 358 338 284 226 215 211 206 208 201 208 210 207 200 189 181 167 165 191 195 22 43 34 34 16 10 6 5 16 20
152 241 154 192 211 196 219 236 192 228 235 114 261 58 43 46 43 41 27 6 341 324 312 265 226 217 200 199 204 204 213 213 207 202 193 183 180 202 208 216 46 19 28 25 20 15 1 359 6
231 202 201 163 185 165 210 273 234 239 60 48 59 69 57 47 40 25 9 357 347 340 326 299 231 203 194 186 186 194 203 218 226 216 198 168 191 210 193 209 207 297 37 32 29 20 358 356 1
232 210 197 211 202 230 180 238 277 184 116 99 90 73 56 48 38 30 14 3 355 350 342 329 252 186 177 172 167 158 153 154 162 137 154 169 165 170 194 201 187 133 72 45 33 28 15 3 2
152 248 269 262 243 214 218 220 193 134 139 111 92 67 52 40 24 20 17 9 6 1 2 11 90 155 157 147 134 122 120 123 116 113 112 117 119 151 155 114 97 76 79 53 51 23 1 346 339
77 282 275 238 230 217 168 176 196 140 158 125 93 79 63 48 38 32 16 14 13 22 43 82 111 138 142 129 125 115 107 103 101 97 101 103 109 109 109 95 85 75 77 66 49 24 357 345 336
234 256 268 136 170 145 208 222 149 161 189 153 115 89 70 55 43 34 28 32 35 64 74 101 121 127 123 120 112 108 102 96 93 92 92 91 90 89 91 86 79 73 69 61 43 24 10 352 340
215 258 229 283 202 147 221 240 159 52 205 182 159 122 91 78 50 36 36 45 57 85 93 102 118 118 117 113 109 104 101 96 91 89 90 90 91 89 88 82 79 72 62 50 38 24 13 358 344
215 215 224 239 169 206 207 245 173 114 191 187 179 165 128 83 47 37 45 57 71 93 103 110 109 116 117 115 110 104 98 89 85 80 79 79 77 74 70 65 57 50 44 34 28 24 17 9 346
236 216 210 209 186 238 245 253 208 184 183 187 185 172 142 98 77 67 66 75 82 90 97 105 113 114 114 110 102 94 84 82 78 74 71 71 70 66 65 60 56 50 47 40 34 28 19 10 357
218 238 243 268 238 224 262 253 227 198 215 206 183 169 153 133 106 88 85 87 89 93 95 100 105 110 105 102 100 99 96 87 83 79 74 72 71 70 66 62 57 52 47 41 36 30 22 19 14
224 231 238 253 152 231 279 264 220 185 170 164 168 153 146 136 124 109 99 97 98 92 95 100 102 101 100 104 105 100 93 87 78 70 68 64 66 65 64 62 57 52 47 40 32 28 28 16 16
230 213 231 245 244 262 199 284 207 196 185 185 170 167 153 142 129 121 116 108 103 99 101 100 100 101 102 103 102 104 101 96 90 85 79 70 64 60 56 53 50 47 43 38 31 23 20 17 15
243 149 206 227 240 270 210 261 159 173 211 195 180 171 162 153 146 138 126 118 112 111 108 106 106 105 105 105 104 100 97 95 95 89 82 76 66 60 53 47 42 39 33 26 19 15 14 9 359
133 102 88 114 215 252 231 218 213 204 218 180 177 175 169 163 156 142 130 124 116 114 111 108 104 98 97 98 99 102 105 104 96 83 74 63 56 50 45 39 33 27 22 16 12 4 359 358 346
176 154 189 226 208 250 275 211 256 221 187 185 175 175 176 169 165 159 154 146 135 125 117 113 110 104 103 100 97 97 99 98 91 87 74 66 55 41 30 27 23 18 10 4 360 353 347 341 331
194 194 197 221 207 210 137 225 235 129 140 174 176 173 170 173 173 170 165 156 148 141 134 128 122 117 113 108 104 102 103 101 97 93 85 64 49 35 20 17 11 5 359 354 350 345 337 331 325
180 213 203 100 53 262 209 227 213 151 153 164 172 172 178 181 179 176 171 166 160 153 147 142 135 129 127 123 119 113 104 106 92 71 57 35 21 11 4 358 356 351 347 343 340 331 327 322 317
196 147 180 216 222 232 219 253 232 199 185 175 180 184 182 182 181 180 177 173 168 161 154 149 143 140 137 132 125 114 105 82 63 42 36 11 358 351 355 353 352 344 340 335 332 327 321 316 311
171 189 206 210 217 221 260 230 205 200 187 186 189 188 185 184 183 181 182 178 172 167 162 158 154 148 145 136 125 117 104 82 46 23 22 356 356 354 352 348 341 337 332 330 329 324 319 315 311
233 219 191 201 186 238 303 247 189 204 190 187 189 190 188 186 184 184 182 179 177 174 171 168 165 152 157 147 139 128 121 101 70 44 23 359 351 347 343 340 337 332 330 327 323 319 315 312 310